Showing default

FLOCK 4Q 29, 58304

Orbit data source: Space-Track

FLOCK 4Q 29, 58304 is a payload satellite owned by Planet (US) in SSO that was launched on Sat, 11 Nov 2023 UTC via an FALCON 9 launch vehicle from the Air Force Western Test Range (AFWTR). Payload-class satellites include a variety of spacecraft equipped with specific instruments for various scientific and technological missions. These include communications satellites like Starlink; space stations such as the ISS; scientific satellites like the Hubble; Earth observation satellites from companies like Planet Labs, Umbra, and HawkEye 360; GPS; miniature CubeSats for education and research; and military/defense satellites.

Not visible in the next 10 days
Identifier
58304, 2023-174BA
Orbit
SSO
Country
Flag of USUS
Related business
Manufacturer
Planet
Mission
Non-operational Commercial Imaging
Bus & Motor
CUBESAT 3U, Unknown motor
Mass
5.7 kg wet, 5.7 kg dry
Launch date (UTC)
2023-11-11 (3 years ago)
Launch vehicle
FALCON 9
Launch site
Air Force Western Test Range (AFWTR)
Object type
Payload
Rocket body
Debris
Shape & HBR
Box + 2 Pan, 1.0 m
Radar Cross Section
0.072 m², Medium (>0.1 m² and < 1m²)

Expand to show TLE details & history
Last TLE update: 8 hours ago

TLE from 8 hours ago
0 FLOCK 4Q 29
1 58304U 23174BA  26248.24956187  .00150425  00000-0  10257-2 0  9995
2 58304  97.3854 343.7637 0005319 222.6808 137.4044 15.74391829158272
Epoch: 2026-09-05T05:59Z
TLE epoch observation values (Epoch: 2026-09-05T05:59:22.145Z)
Latitude
-0.00002°
Longitude
-90.44031°
Altitude
352.161 km
Speed
7.696 km/s
True Right ascension
22h 55m 03s
True Declination
0° 00' 00"
Sunlit
Object was in full shadow at epoch
Visualization orbit readout
Latitude
Unknown
Longitude
Unknown
Altitude
Unknown
Speed
Unknown
Apparent Right ascension
Unknown
Apparent Declination
Unknown
Sunlit
N/A
Visualization observer readout
Local Sidereal Time
06:21:59
Azimuth
Unknown
Elevation
Unknown
Doppler factor
Unknown
Orbital elements
Apogee altitude
346.83 km
Perigee altitude
339.68 km
Semi-major axis
6,721.392 km
Eccentricity
0.00053
Inclination
97.3854°
RAAN
343.7637°
Arg. of periapsis
222.6808°
True anomaly
137.44563°
Mean anomaly
137.4044°
Eccentric anomaly
137.42502°
Mean motion
3.93871 °/min
Orbital period
91.4 mins
BSTAR
0.0010257
Loading maneuver chart data...
Computing Atmospheric mass density...

Documentation

Showing up to 5 results
|